�������l�o���
Date,Time,MP-1(��Sv/h),MP-2(��Sv/h),MP-3(��Sv/h),MP-4(��Sv/h),MP-5(��Sv/h),MP-6(��Sv/h),MP-7(��Sv/h),MP-8(��Sv/h),����,����(m/s),���J
2017/08/04,00:00,0.971,1.522,1.007,1.809,1.255,0.521,0.951,0.878,-,CALM,��
2017/08/04,00:10,0.971,1.521,1.008,1.809,1.251,0.520,0.953,0.879,-,CALM,��
2017/08/04,00:20,0.969,1.521,1.010,1.811,1.253,0.518,0.951,0.880,���쐼,0.8,��
2017/08/04,00:30,0.970,1.520,1.007,1.807,1.254,0.520,0.951,0.880,��,0.6,�L
2017/08/04,00:40,0.970,1.518,1.008,1.810,1.253,0.520,0.949,0.879,�k,0.6,�L
2017/08/04,00:50,0.972,1.519,1.008,1.811,1.255,0.520,0.950,0.879,�k�k��,0.6,�L
2017/08/04,01:00,0.970,1.522,1.008,1.811,1.252,0.520,0.951,0.878,�k��,0.8,�L
2017/08/04,01:10,0.969,1.519,1.007,1.810,1.256,0.520,0.950,0.879,�k,0.6,�L
2017/08/04,01:20,0.971,1.520,1.008,1.811,1.252,0.520,0.954,0.878,�k�k��,0.9,�L
2017/08/04,01:30,0.969,1.521,1.009,1.811,1.253,0.520,0.951,0.879,�k,1.1,�L
2017/08/04,01:40,0.969,1.520,1.009,1.813,1.253,0.520,0.954,0.877,�k�k��,1.2,�L
2017/08/04,01:50,0.973,1.524,1.008,1.813,1.253,0.520,0.951,0.879,�k�k��,0.9,��
2017/08/04,02:00,0.971,1.523,1.010,1.811,1.253,0.521,0.952,0.880,�k,1.4,�L
2017/08/04,02:10,0.972,1.519,1.010,1.809,1.253,0.521,0.951,0.880,�k�k��,0.9,�L
2017/08/04,02:20,0.970,1.522,1.011,1.812,1.251,0.522,0.952,0.878,�k,1.1,�L
2017/08/04,02:30,0.968,1.524,1.011,1.811,1.253,0.521,0.951,0.881,�k,1.2,�L
2017/08/04,02:40,0.973,1.519,1.008,1.811,1.253,0.521,0.951,0.877,�k�k��,1.5,�L
2017/08/04,02:50,0.969,1.521,1.009,1.808,1.254,0.520,0.952,0.877,�k�k��,1.4,�L
2017/08/04,03:00,0.971,1.522,1.008,1.809,1.254,0.521,0.953,0.880,�k�k��,1.7,�L
2017/08/04,03:10,0.970,1.520,1.008,1.807,1.252,0.519,0.949,0.879,�k�k��,1.7,�L
2017/08/04,03:20,0.968,1.520,1.007,1.809,1.251,0.520,0.952,0.879,�k�k��,2.0,�L
2017/08/04,03:30,0.970,1.519,1.011,1.810,1.253,0.519,0.951,0.878,�k,1.7,��
2017/08/04,03:40,0.970,1.518,1.010,1.808,1.255,0.519,0.951,0.878,�k�k��,2.0,��
2017/08/04,03:50,0.970,1.520,1.007,1.809,1.252,0.521,0.951,0.879,�k�k��,2.3,��
2017/08/04,04:00,0.970,1.517,1.009,1.808,1.254,0.518,0.951,0.881,�k�k��,2.0,�L
2017/08/04,04:10,0.968,1.519,1.008,1.808,1.253,0.519,0.952,0.879,�k��,1.9,�L
2017/08/04,04:20,0.968,1.515,1.006,1.810,1.254,0.519,0.950,0.880,�k��,1.7,��
2017/08/04,04:30,0.969,1.519,1.008,1.809,1.255,0.521,0.950,0.878,�k��,1.5,�L
2017/08/04,04:40,0.969,1.517,1.007,1.811,1.252,0.520,0.951,0.877,�k�k��,2.3,�L
2017/08/04,04:50,0.968,1.518,1.008,1.807,1.250,0.520,0.951,0.878,�k�k��,2.5,�L
2017/08/04,05:00,0.970,1.519,1.008,1.808,1.252,0.520,0.952,0.878,�k��,3.0,�L
2017/08/04,05:10,0.970,1.522,1.007,1.810,1.250,0.518,0.952,0.878,�k�k��,2.6,��
2017/08/04,05:20,0.969,1.518,1.008,1.811,1.252,0.518,0.951,0.879,�k�k��,2.6,��
2017/08/04,05:30,0.969,1.521,1.008,1.810,1.251,0.521,0.951,0.879,�k,2.8,��
2017/08/04,05:40,0.968,1.521,1.009,1.809,1.251,0.517,0.950,0.877,�k,2.5,��
2017/08/04,05:50,0.969,1.518,1.008,1.810,1.253,0.519,0.952,0.880,�k�k��,2.3,��
2017/08/04,06:00,0.966,1.518,1.009,1.811,1.250,0.518,0.952,0.878,�k�k��,2.3,��
2017/08/04,06:10,0.969,1.521,1.006,1.810,1.251,0.519,0.952,0.880,�k�k��,2.3,��
2017/08/04,06:20,0.965,1.519,1.007,1.809,1.252,0.518,0.953,0.878,�k,2.3,��
2017/08/04,06:30,0.969,1.520,1.002,1.811,1.251,0.519,0.951,0.879,�k,2.0,��
2017/08/04,06:40,0.969,1.520,0.994,1.810,1.253,0.519,0.950,0.878,�k,1.7,��
2017/08/04,06:50,0.971,1.520,0.994,1.810,1.250,0.518,0.951,0.881,�k�k��,1.7,��
2017/08/04,07:00,0.968,1.519,0.995,1.811,1.253,0.518,0.951,0.880,�k,1.4,��
2017/08/04,07:10,0.969,1.519,0.996,1.811,1.251,0.519,0.950,0.878,�k��,1.4,��
2017/08/04,07:20,0.970,1.521,0.994,1.809,1.251,0.518,0.949,0.876,�k��,0.9,��
2017/08/04,07:30,0.968,1.520,0.995,1.810,1.253,0.518,0.949,0.877,�k��,0.9,��
2017/08/04,07:40,0.969,1.518,1.002,1.809,1.249,0.520,0.953,0.878,�k��,1.1,��
2017/08/04,07:50,0.967,1.518,1.003,1.814,1.251,0.519,0.951,0.879,�k��,0.8,��
2017/08/04,08:00,0.968,1.517,1.005,1.813,1.253,0.517,0.951,0.878,�k�k��,0.9,��
2017/08/04,08:10,0.969,1.518,1.005,1.809,1.250,0.519,0.951,0.879,�k,1.1,��
2017/08/04,08:20,0.969,1.515,1.003,1.813,1.253,0.519,0.949,0.878,�k,0.8,��
2017/08/04,08:30,0.968,1.520,1.002,1.813,1.251,0.518,0.951,0.877,�k�k��,1.1,��
2017/08/04,08:40,0.968,1.514,1.004,1.813,1.254,0.518,0.951,0.877,�k�k��,0.6,��
2017/08/04,08:50,0.968,1.516,1.004,1.811,1.250,0.517,0.952,0.878,-,CALM,��
2017/08/04,09:00,0.968,1.515,1.002,1.810,1.254,0.519,0.952,0.875,��쐼,1.2,��
2017/08/04,09:10,0.969,1.516,1.002,1.812,1.256,0.517,0.952,0.878,��쓌,1.2,��
2017/08/04,09:20,0.969,1.515,1.005,1.811,1.254,0.516,0.952,0.878,��쓌,2.2,��
2017/08/04,09:30,0.968,1.516,1.003,1.809,1.252,0.518,0.950,0.878,�쓌,2.2,��
2017/08/04,09:40,0.970,1.515,1.005,1.812,1.254,0.516,0.952,0.877,�쓌,2.5,��
2017/08/04,09:50,0.968,1.513,1.005,1.809,1.251,0.517,0.950,0.876,�쓌,1.9,��
2017/08/04,10:00,0.966,1.513,1.003,1.810,1.249,0.519,0.950,0.875,��,2.3,��
2017/08/04,10:10,0.967,1.513,1.003,1.812,1.253,0.520,0.953,0.876,��,1.5,��
2017/08/04,10:20,0.968,1.514,1.004,1.810,1.253,0.518,0.952,0.876,��,0.9,��
2017/08/04,10:30,0.969,1.511,1.002,1.813,1.252,0.520,0.952,0.877,��쓌,1.9,��
2017/08/04,10:40,0.970,1.515,1.003,1.813,1.251,0.519,0.952,0.876,��쓌,2.6,��
2017/08/04,10:50,0.970,1.516,1.003,1.811,1.250,0.520,0.952,0.875,�쓌,2.6,��
2017/08/04,11:00,0.968,1.514,1.004,1.814,1.253,0.519,0.948,0.876,�쓌,2.0,��
2017/08/04,11:10,0.970,1.516,1.003,1.813,1.253,0.519,0.953,0.877,�쓌,3.0,��
2017/08/04,11:20,0.969,1.518,1.006,1.811,1.252,0.519,0.951,0.877,�쓌,2.3,��
2017/08/04,11:30,0.970,1.517,1.004,1.812,1.254,0.518,0.953,0.877,���쓌,2.5,��
2017/08/04,11:40,0.969,1.516,1.006,1.810,1.253,0.518,0.954,0.875,�쓌,2.2,��
2017/08/04,11:50,0.971,1.517,1.004,1.812,1.252,0.518,0.952,0.878,�쓌,2.3,��
2017/08/04,12:00,0.972,1.516,1.005,1.812,1.255,0.520,0.951,0.878,�쓌,2.5,��
2017/08/04,12:10,0.971,1.518,1.005,1.812,1.252,0.519,0.950,0.877,�쓌,2.3,��
2017/08/04,12:20,0.971,1.522,1.006,1.806,1.253,0.520,0.953,0.877,�쓌,2.6,��
2017/08/04,12:30,0.970,1.520,1.006,1.812,1.256,0.518,0.951,0.878,�쓌,3.7,��
2017/08/04,12:40,0.970,1.523,1.006,1.809,1.253,0.519,0.951,0.876,�쓌,2.8,��
2017/08/04,12:50,0.971,1.520,1.003,1.812,1.256,0.519,0.953,0.875,�쓌,2.5,��
2017/08/04,13:00,0.969,1.523,1.004,1.814,1.257,0.519,0.952,0.875,�쓌,3.5,��
2017/08/04,13:10,0.972,1.521,1.007,1.813,1.254,0.517,0.951,0.878,�쓌,3.0,��
2017/08/04,13:20,0.971,1.522,1.006,1.811,1.255,0.519,0.951,0.879,��쓌,4.1,��
2017/08/04,13:30,0.969,1.519,1.006,1.815,1.254,0.519,0.954,0.877,��쓌,3.7,��
2017/08/04,13:40,0.971,1.519,1.005,1.814,1.252,0.519,0.952,0.874,��쓌,4.4,��
2017/08/04,13:50,0.973,1.516,1.006,1.811,1.255,0.518,0.952,0.877,��쓌,3.9,��
2017/08/04,14:00,0.972,1.518,1.006,1.815,1.253,0.521,0.951,0.876,��쓌,4.3,��
2017/08/04,14:10,0.970,1.521,1.006,1.815,1.254,0.518,0.952,0.876,��쓌,4.2,��
2017/08/04,14:20,0.971,1.517,1.008,1.812,1.257,0.517,0.953,0.877,��쓌,4.6,��
2017/08/04,14:30,0.970,1.521,1.008,1.814,1.254,0.520,0.953,0.877,��쓌,5.0,��
2017/08/04,14:40,0.969,1.521,1.011,1.814,1.253,0.520,0.952,0.875,��쓌,4.8,��
2017/08/04,14:50,0.970,1.521,1.009,1.814,1.256,0.519,0.952,0.876,��쓌,4.6,��
2017/08/04,15:00,0.972,1.520,1.008,1.818,1.255,0.519,0.952,0.877,�쓌,3.2,��
2017/08/04,15:10,0.969,1.521,1.008,1.815,1.254,0.520,0.953,0.877,�쓌,3.3,��
2017/08/04,15:20,0.974,1.521,1.010,1.816,1.255,0.520,0.952,0.879,�쓌,3.3,��
2017/08/04,15:30,0.970,1.522,1.007,1.814,1.258,0.519,0.951,0.877,�쓌,3.0,��
2017/08/04,15:40,0.971,1.519,1.008,1.815,1.259,0.519,0.954,0.879,�쓌,2.5,��
2017/08/04,15:50,0.971,1.522,1.008,1.816,1.255,0.519,0.955,0.877,�쓌,2.6,��
2017/08/04,16:00,0.971,1.520,1.008,1.818,1.257,0.522,0.954,0.879,�쓌,2.8,��
2017/08/04,16:10,0.970,1.520,1.008,1.818,1.257,0.520,0.952,0.879,���쓌,2.6,��
2017/08/04,16:20,0.970,1.521,1.007,1.813,1.257,0.519,0.952,0.879,�쓌,2.8,��
2017/08/04,16:30,0.971,1.522,1.009,1.816,1.255,0.520,0.952,0.876,�쓌,3.4,��
2017/08/04,16:40,0.971,1.526,1.010,1.813,1.256,0.519,0.952,0.878,�쓌,3.4,�L
2017/08/04,16:50,0.971,1.524,1.010,1.813,1.257,0.521,0.951,0.877,�쓌,3.8,��
2017/08/04,17:00,0.972,1.527,1.010,1.818,1.256,0.520,0.953,0.878,���쓌,2.6,��
2017/08/04,17:10,0.970,1.525,1.011,1.812,1.259,0.519,0.953,0.879,�쓌,2.3,��
2017/08/04,17:20,0.973,1.526,1.011,1.816,1.256,0.520,0.951,0.878,�쓌,2.5,��
2017/08/04,17:30,0.971,1.525,1.011,1.814,1.257,0.520,0.953,0.878,�쓌,2.6,��
2017/08/04,17:40,0.972,1.526,1.012,1.816,1.256,0.521,0.952,0.880,��쓌,2.9,��
2017/08/04,17:50,0.973,1.525,1.010,1.815,1.257,0.519,0.952,0.878,�쓌,2.6,��
2017/08/04,18:00,0.971,1.526,1.012,1.815,1.258,0.521,0.952,0.879,�쓌,2.8,��
2017/08/04,18:10,0.972,1.526,1.012,1.817,1.259,0.520,0.953,0.878,��,2.5,��
2017/08/04,18:20,0.971,1.525,1.011,1.816,1.253,0.522,0.954,0.879,��,2.3,��
2017/08/04,18:30,0.972,1.527,1.011,1.816,1.257,0.520,0.954,0.878,��쓌,1.9,��
2017/08/04,18:40,0.974,1.528,1.011,1.816,1.255,0.520,0.952,0.878,���쓌,0.9,��
2017/08/04,18:50,0.969,1.525,1.013,1.816,1.258,0.522,0.953,0.881,�쓌,1.9,��
2017/08/04,19:00,0.972,1.525,1.012,1.816,1.256,0.520,0.953,0.880,���쓌,0.9,��
2017/08/04,19:10,0.972,1.527,1.012,1.817,1.260,0.521,0.953,0.880,���쓌,1.2,��
2017/08/04,19:20,0.973,1.526,1.010,1.814,1.257,0.521,0.953,0.880,��,0.9,��
2017/08/04,19:30,0.974,1.525,1.013,1.811,1.257,0.521,0.951,0.881,�쓌,0.6,��
2017/08/04,19:40,0.973,1.525,1.014,1.816,1.260,0.522,0.956,0.880,�쓌,0.9,��
2017/08/04,19:50,0.972,1.528,1.012,1.819,1.255,0.521,0.952,0.881,�쓌,1.7,��
2017/08/04,20:00,0.973,1.527,1.010,1.815,1.258,0.521,0.954,0.880,�쓌,1.2,��
2017/08/04,20:10,0.972,1.523,1.013,1.815,1.258,0.520,0.953,0.881,��,0.9,��
2017/08/04,20:20,0.973,1.528,1.013,1.815,1.259,0.520,0.953,0.879,�쐼,1.2,��
2017/08/04,20:30,0.973,1.527,1.013,1.817,1.259,0.521,0.952,0.879,-,CALM,��
2017/08/04,20:40,0.973,1.527,1.013,1.815,1.257,0.522,0.954,0.881,-,CALM,��
2017/08/04,20:50,0.971,1.527,1.012,1.816,1.258,0.521,0.953,0.879,-,CALM,��
2017/08/04,21:00,0.972,1.525,1.013,1.815,1.258,0.523,0.955,0.880,-,CALM,��
2017/08/04,21:10,0.973,1.529,1.013,1.816,1.259,0.522,0.954,0.880,-,CALM,��
2017/08/04,21:20,0.974,1.528,1.012,1.816,1.261,0.521,0.954,0.881,��,0.9,��
2017/08/04,21:30,0.974,1.527,1.014,1.818,1.259,0.523,0.954,0.880,��,1.1,��
2017/08/04,21:40,0.975,1.527,1.013,1.814,1.260,0.521,0.954,0.880,��쓌,1.2,��
2017/08/04,21:50,0.975,1.525,1.012,1.816,1.260,0.522,0.954,0.881,��쐼,0.9,��
2017/08/04,22:00,0.974,1.524,1.012,1.816,1.258,0.520,0.954,0.880,��,0.6,��
2017/08/04,22:10,0.973,1.528,1.013,1.815,1.255,0.520,0.955,0.880,-,CALM,��
2017/08/04,22:20,0.972,1.526,1.013,1.819,1.259,0.522,0.954,0.880,-,CALM,��
2017/08/04,22:30,0.973,1.521,1.012,1.816,1.260,0.521,0.952,0.880,�쓌,0.6,��
2017/08/04,22:40,0.974,1.525,1.012,1.816,1.256,0.520,0.954,0.880,-,CALM,��
2017/08/04,22:50,0.974,1.527,1.014,1.815,1.258,0.521,0.953,0.880,���쓌,0.6,��
2017/08/04,23:00,0.975,1.527,1.011,1.817,1.260,0.521,0.954,0.880,��쓌,0.6,��
2017/08/04,23:10,0.972,1.529,1.012,1.817,1.259,0.520,0.953,0.881,��쓌,1.1,��
2017/08/04,23:20,0.973,1.527,1.012,1.820,1.260,0.522,0.953,0.879,��,1.9,�L
2017/08/04,23:30,0.972,1.527,1.012,1.816,1.261,0.522,0.954,0.879,��,2.0,�L
2017/08/04,23:40,0.971,1.528,1.013,1.816,1.257,0.521,0.954,0.880,��쐼,2.6,�L
2017/08/04,23:50,0.974,1.528,1.012,1.816,1.261,0.524,0.953,0.880,��쐼,2.3,��
